User: anonymous
Location: ActonStarParty
(42.4766°N, 71.4538°W)
Time: 12:30:07
(UTC-04:00)
Language:

Cosmos 1300 - Orbit

View from above orbital plane
View from above orbital plane
View from above satellite
View from above satellite

Ground track
Ground track

The orbit data is extracted from the following two-line orbital elements,

1 12785U 81082A   14274.15423625  .00004947  00000-0  28841-3 0  8324
2 12785 082.5082 329.6056 0002601 085.9435 329.4411 15.11773155801935
Epoch (UTC): 01 October 2014 03:42:06
Eccentricity: 0.0002601
inclination: 82.5082°
perigee height: 529 km
apogee height: 532 km
right ascension of ascending node: 329.6056°
argument of perigee: 85.9435°
revolutions per day: 15.11773155
mean anomaly at epoch: 329.4411°
orbit number at epoch: 80193

The dashed part of the orbit path shows where the satellite is in the earth's shadow,  

DLR